DELTA 1 DEB, 1312

Orbit data source: Space-Track

DELTA 1 DEB, 1312 is space debris in SSO originally from a launch on Fri, 22 Jan 1965 UTC launched from the Air Force Eastern Test Range (AFETR). Debris objects in space refer to the collection of defunct objects orbiting the Earth. Examples of debris include non-operational satellites, rocket bodies, and fragments generated from explosions, collisions, or faulty payload assembly.

Loading next visibility...
Identifier
1312, 1965-004C
Orbit
SSO
Country
Flag of USUS
Related business
Manufacturer
Unknown
Mission
Spacecraft
Bus & Motor
Unknown
Mass
~1 kg wet, ~1 kg dry
Launch date (UTC)
1965-01-22 (61 years ago)
Launch vehicle
Unknown
Launch site
Air Force Eastern Test Range (AFETR)
Object type
Payload
Rocket body
Debris
Shape & HBR
Unknown
Radar Cross Section
Small (<0.1 m²)

Expand to show TLE details & history
Last TLE update: 12 hours ago

TLE from 12 hours ago
0 DELTA 1 DEB
1 01312U 65004C   26145.44407166  .00000114  00000-0  12520-3 0  9991
2 01312  96.3310 153.3546 1116485 165.6848 197.8816 12.28255508723798
Epoch: 2026-05-25T10:39Z
TLE epoch observation values (Epoch: 2026-05-25T10:39:27.791Z)
Latitude
0.00003°
Longitude
110.45702°
Altitude
2,410.848 km
Speed
6.364 km/s
True Right ascension
10h 13m 25s
True Declination
0° 00' 00"
Sunlit
Object was in daylight at epoch
Visualization orbit readout
Latitude
Unknown
Longitude
Unknown
Altitude
Unknown
Speed
Unknown
Apparent Right ascension
Unknown
Apparent Declination
Unknown
Sunlit
N/A
Visualization observer readout
Local Sidereal Time
08:10:18
Azimuth
Unknown
Elevation
Unknown
Doppler factor
Unknown
Orbital elements
Apogee altitude
2,439.685 km
Perigee altitude
668.448 km
Semi-major axis
7,932.203 km
Eccentricity
0.11165
Inclination
96.331°
RAAN
153.3546°
Arg. of periapsis
165.6848°
True anomaly
194.41761°
Mean anomaly
197.8816°
Eccentric anomaly
196.10688°
Mean motion
3.07222 °/min
Orbital period
117.18 mins
BSTAR
0.0001252
Loading maneuver chart data...
Computing Atmospheric mass density...
Loading historical data...
Loading historical data...
Loading historical data...
Loading historical data...
Loading historical data...
Loading historical data...
Loading historical data...
Other satellites on launch #4 in the year 1965 (1965-01-22 UTC)

Documentation

Showing up to 5 results
|